Weather in Yasny

Russia / Zabaykalsky Krai     52°07′36″N   113°29′38″E
temp.,
°C
wind,
m/s
gust,
m/s
humid.,
%
clouds,
%
prec.,
mm/h
press.,
hPa
HPBL,
m
3 march, wed
wed300:00−17s229784 0.0 101221
03:00−18s129792 0.0 101120
06:00−19ssw1198100 0.0 101120
09:00−17sw1195100 0.0 101120
12:00−9w3875100 0.0 1008789
15:00−6wnw5966100 0.0 10061549
18:00−7w3878100 0.1 1006711
21:00−13wnw4137598 0.1 1009395
4 march, thu
thu400:00−17wnw5137488 0.0 1013291
03:00−19wnw4127780 0.0 1015318
06:00−21wnw413820 0.0 1019332
09:00−23nw498517 0.0 1023257
12:00−19nnw35730 0.0 1025936
15:00−17nnw466049 0.0 10261599
18:00−17nw4673100 0.1 1029939
21:00−22nw2289100 0.1 103523
5 march, fri
fri500:00−25nnw229096 0.0 103920
03:00−29nnw228548 0.0 104219
06:00−31nnw11820 0.0 104519
09:00−30nne11810 0.0 104619
12:00−22s22740 0.0 1042336
15:00−18ssw237216 0.0 1038442
18:00−18s12798 0.0 1036227
21:00−23ne118812 0.0 103820
6 march, sat
sat600:00−25ne11942 0.0 103620
03:00−24ne119449 0.0 103520
06:00−24ne1197100 0.0 103320
09:00−22nne1197100 0.0 103331
12:00−17sw1185100 0.0 1029289
15:00−12s2184100 0.1 1026367
18:00−12s2293100 0.0 1024137
21:00−14ssw229491 0.1 102624
7 march, sun
sun700:00−13w2488100 0.0 102679
03:00−12wsw2387100 0.0 102648
06:00−15wnw118945 0.0 102720
09:00−15n019023 0.0 102820
12:00−7s11800 0.0 1025368
15:00−4s238334 0.0 1023401
18:00−5ssw258948 0.0 1022228
21:00−10ssw229024 0.0 102421